User: anonymous   Login
Location: *
(43.0409°N, 0.1694°E)
Time: 10:11:17
(UTC+00:00)
Language:

IRS-P3 - Orbit

View from above orbital plane
View from above orbital plane
View from above satellite
View from above satellite

Ground track
Ground track

The orbit data is extracted from the following two-line orbital elements,

1 23827U 96017A   24056.95768574  .00000333  00000-0  16826-3 0  9998
2 23827  99.0263  46.5399 0003270 178.5089 181.6099 14.23095651450042
Epoch (UTC): 25 February 2024 22:59:04
Eccentricity: 0.0003270
inclination: 99.0263°
perigee height: 812 km
apogee height: 817 km
right ascension of ascending node: 46.5399°
argument of perigee: 178.5089°
revolutions per day: 14.23095651
mean anomaly at epoch: 181.6099°
orbit number at epoch: 45004

The dashed part of the orbit path shows where the satellite is in the earth's shadow,  

DLR